Simultaneous Nadir Overpasses (SNOs) Predictions

Prediction of SNOs between AQUA and GOES-15 Satellite Orbit:

Table of predicted SNOs for the next 14.0 days since TLE Epoch: 4/5/2019
Index Date Time (AQUA) AQUA Lat,Lon GOES-15 Lat,Lon Distance(km) Time Diff (sec)
1 04/07/2019 10:01:33 -0.29,-126.45 0.05,-127.94 169.80 80
2 04/07/2019 22:22:56 -0.84,-131.63 -0.05,-127.91 423.69 80
3 04/09/2019 09:49:21 -0.90,-123.49 0.05,-127.87 498.92 80
4 04/09/2019 22:10:44 -0.23,-128.67 -0.05,-127.84 94.80 66
5 04/11/2019 21:58:32 0.38,-125.71 -0.06,-127.76 233.34 80
6 04/12/2019 10:19:48 0.72,-130.87 0.06,-127.76 353.98 80
7 04/14/2019 10:07:36 0.10,-127.91 0.06,-127.67 26.53 80
8 04/16/2019 09:55:24 -0.52,-124.95 0.07,-127.59 300.74 80
9 04/16/2019 22:16:46 -0.60,-130.14 -0.06,-127.55 293.16 80
10 04/18/2019 22:04:35 0.03,-127.18 -0.06,-127.47 33.98 80




NCC Satellite Simultaneous Nadir Overpasses (SNOs) Prediction Service
